[[{"header":{"parameterUnit":"m.s-1","parameterCategory":1,"la1":30.2992,"la2":30.254,"lo1":-89.0895,"lo2":-89.0443,"dy":0.0025,"dx":0.0025,"nx":19,"ny":19,"refTime":"2026-04-21T03:00:00:Z","depth":0,"parameterNumber":2,"parameterNumberName":"U-component_of_WINDS"},"data":[0,0,0,-3.8881,-3.8883,-3.8984,-3.8985,-3.9129,-3.9131,0,0,0,0,0,0,0,0,0,0,0,-3.8862,-3.8864,-3.8881,-3.8884,-3.8984,-3.8985,-3.9129,-3.9131,0,0,0,0,0,0,0,0,0,0,0,-3.8862,-3.8863,-3.8865,-3.8884,-3.8984,-3.8985,-3.9129,-3.9047,0,0,0,0,0,0,0,0,0,0,-3.8946,-3.894,-3.8863,-3.8865,-3.8885,-3.8984,-3.8985,-3.9042,-3.9052,-3.9091,0,-3.913,0,-3.9133,-3.9142,-3.9142,0,0,0,-3.8875,-3.8932,-3.8949,-3.8865,-3.8886,-3.8984,-3.8936,-3.9047,-3.9058,-3.9103,-3.9132,-3.9137,-3.9135,-3.9143,-3.9143,-3.94,-3.9401,0,0,-3.8869,-3.8886,-3.8942,-3.8957,-3.8944,-3.8933,-3.894,-3.9054,-3.9085,-3.9132,-3.914,-3.9138,-3.9144,-3.9145,-3.9398,-3.94,0,0,0,-3.8859,-3.8883,-3.8897,-3.8951,-3.8968,-3.8936,-3.8944,-3.908,-3.9083,-3.9141,-3.9139,-3.9145,-3.9147,-3.9397,-3.9399,-3.9494,0,0,0,-3.8856,-3.8877,-3.8895,-3.8906,-3.8967,-3.9026,-3.8968,-3.9075,-3.9088,-3.9139,-3.9145,-3.9148,-3.9395,-3.9398,-3.9487,-3.9535,0,0,0,-3.8852,-3.8876,-3.8895,-3.8906,-3.8951,-3.9024,-3.9033,-3.9078,-3.9087,-3.9142,-3.9149,-3.9394,-3.9397,-3.9482,-3.9526,-3.9606,0,0,0,-3.8852,-3.8978,-3.8896,-3.9035,-3.895,-3.9082,-3.9032,-3.913,-3.9189,-3.9145,-3.9395,-3.9399,-3.948,-3.952,-3.9601,-3.9677,-3.971,0,0,-3.9019,-3.8998,-3.9079,-3.9009,-3.916,-3.9066,-3.923,-3.9268,-3.9258,-3.9353,-3.9359,-3.9489,-3.9525,-3.9605,-3.9896,-3.9923,0,0,0,-3.9137,-3.9195,-3.9231,-3.9288,-3.9321,-3.9352,-3.9363,-3.9377,-3.9457,-3.931,-3.9541,-3.9561,-3.9608,-3.9643,-3.9666,-3.9704,-3.9416,-3.9416,-3.9416,-3.9396,-3.9377,-3.9508,-3.9501,-3.9557,-3.9567,-3.961,-3.963,-3.9594,-3.9649,-3.9676,-3.9855,-3.9897,-3.9914,-3.9954,-3.9716,-3.9716,-3.9717,-3.9717,-3.9637,-3.9715,-3.9665,-3.9774,-3.9752,-3.9843,-3.9857,-3.9829,-3.9909,-3.9833,-3.9872,-3.9789,-3.9944,-3.9978,-3.9724,-3.9723,-3.9722,-3.9721,-3.9721,-3.9803,-3.9837,-3.9853,-3.9933,-3.9996,-3.9984,-4.0064,-4.0042,-4.0021,-4.0061,-4.0086,-4.0085,-4.0079,-4.0075,-4.0076,-4.0076,-4.0077,-4.0077,-4.0077,-3.9969,-3.9983,-4.0054,-4.0099,-4.0132,-4.0173,-4.0184,-4.0215,-4.0244,-4.0222,-4.0222,-4.0179,-3.9964,-3.9909,-4.0087,-4.0085,-4.0084,-4.0083,-4.0083,-4.0218,-4.0158,-4.0267,-4.0301,-4.0351,-4.0414,-4.0385,-4.0452,-4.0474,-4.0514,-4.0464,-4.0308,-4.0285,-4.0266,-4.0221,-4.0468,-4.0468,-4.0468,-4.0468,-4.0358,-4.0344,-4.0449,-4.0504,-4.0555,-4.0539,-4.0661,-4.0671,-4.0671,-4.0683,-4.0645,-4.0583,-4.0565,-4.0552,-4.0527,-4.0484,-4.0793,-4.0794,-4.0794,-4.0509,-4.0499,-4.0607,-4.0608,-4.0645,-4.0677,-4.0791,-4.0854,-4.0842,-4.0807,-4.0692,-4.0679,-4.0579,-4.0548,-4.0508,-4.0471,-4.0391,0,0]},{"header":{"parameterUnit":"m.s-1","parameterCategory":1,"la1":30.2992,"la2":30.254,"lo1":-89.0895,"lo2":-89.0443,"dy":0.0025,"dx":0.0025,"nx":19,"ny":19,"refTime":"2026-04-21T03:00:00:Z","depth":0,"parameterNumber":3,"parameterNumberName":"V-component_of_WINDS"},"data":[0,0,0,3.663,3.6632,3.6737,3.6738,3.6874,3.6875,0,0,0,0,0,0,0,0,0,0,0,3.6603,3.6604,3.663,3.6632,3.6737,3.6738,3.6874,3.6875,0,0,0,0,0,0,0,0,0,0,0,3.6602,3.6604,3.6605,3.6633,3.6737,3.6738,3.6873,3.6793,0,0,0,0,0,0,0,0,0,0,3.669,3.667,3.6603,3.6605,3.6633,3.6737,3.6738,3.6789,3.6798,3.6828,0,3.6859,0,3.6869,3.6885,3.6885,0,0,0,3.6628,3.6663,3.6688,3.6605,3.6634,3.6737,3.6689,3.6794,3.6804,3.684,3.6861,3.6866,3.6872,3.6886,3.6886,3.708,3.7081,0,0,3.6623,3.6623,3.6681,3.6694,3.6682,3.6685,3.6692,3.68,3.6821,3.6861,3.6869,3.6874,3.6887,3.6888,3.7079,3.708,0,0,0,3.6609,3.6619,3.6641,3.6689,3.6708,3.6689,3.6696,3.6816,3.6824,3.687,3.6876,3.6887,3.6889,3.7078,3.7079,3.7133,0,0,0,3.6605,3.6611,3.6639,3.6641,3.6706,3.6764,3.6711,3.6816,3.6828,3.6875,3.6887,3.6891,3.7077,3.7079,3.7129,3.7157,0,0,0,3.6594,3.661,3.6627,3.664,3.6686,3.6762,3.6776,3.6819,3.6832,3.6885,3.6891,3.7076,3.7078,3.7126,3.7152,3.7207,0,0,0,3.6583,3.6673,3.6628,3.673,3.6685,3.6796,3.6775,3.6857,3.691,3.6888,3.7077,3.7079,3.7124,3.7148,3.7203,3.7252,3.7274,0,0,3.6697,3.6687,3.6747,3.671,3.6829,3.678,3.6907,3.6953,3.6957,3.7038,3.7043,3.713,3.7151,3.7206,3.7397,3.7414,0,0,0,3.6783,3.6826,3.6858,3.6909,3.6948,3.6983,3.701,3.7027,3.7096,3.7,3.7167,3.7179,3.7211,3.7234,3.7249,3.7275,3.7091,3.7091,3.709,3.6944,3.6945,3.7044,3.7058,3.7107,3.7135,3.7174,3.72,3.7187,3.7226,3.7249,3.7365,3.7393,3.7404,3.7431,3.7277,3.7278,3.7278,3.7278,3.7109,3.7169,3.7149,3.7238,3.7238,3.7311,3.734,3.7328,3.7394,3.7348,3.7376,3.7323,3.7422,3.7446,3.7282,3.7281,3.7281,3.728,3.728,3.7212,3.7241,3.7262,3.7334,3.739,3.74,3.7465,3.7463,3.7461,3.7489,3.7511,3.7511,3.7507,3.7501,3.7501,3.7501,3.7502,3.7502,3.7502,3.731,3.7332,3.7388,3.7437,3.7468,3.751,3.7538,3.7568,3.76,3.7593,3.7593,3.7573,3.7433,3.7396,3.7508,3.7507,3.7506,3.7506,3.7505,3.7472,3.7435,3.7522,3.7554,3.761,3.7664,3.7661,3.7722,3.7747,3.7778,3.7753,3.7651,3.764,3.7628,3.7598,3.7755,3.7755,3.7755,3.7755,3.7557,3.7553,3.764,3.7691,3.774,3.7746,3.784,3.7863,3.7879,3.7894,3.7871,3.7831,3.782,3.7815,3.78,3.7771,3.7968,3.7969,3.7969,3.7656,3.7656,3.7738,3.7756,3.78,3.7836,3.7924,3.7981,3.7992,3.7977,3.7904,3.7895,3.7831,3.7811,3.7792,3.7768,3.7715,0,0]}]]